Preview of NWS' New Version of Forecast
This preview is not operational and should not be used for support decisions.

Regional Weather Roundup (RWR)

Issued by Philadelphia/Mt Holly (PHI)

                            
000
ASUS41 KPHI 171312
RWRPHI

REGIONAL WEATHER ROUNDUP
NATIONAL WEATHER SERVICE MOUNT HOLLY NJ
900 AM EDT TUE SEP 17 2019

NOTE:  "FAIR" INDICATES FEW OR NO CLOUDS BELOW 12,000 FEET WITH NO
SIGNIFICANT WEATHER AND/OR OBSTRUCTIONS TO VISIBILITY.

 * = STATION DOES NOT REPORT PRECIPITATION (E.G. RAIN, SNOW, ETC.) 
        OR FOG.

NJZ015>026-171400-
SOUTHERN NEW JERSEY
  
CITY           SKY/WX    TMP DP  RH WIND       PRES   REMARKS
POMONA         FAIR      71  56  58 E15G21    30.11R                  
WILDWOOD*      FAIR      72  59  63 E18       30.10R                  
MILLVILLE      FAIR      70  55  59 NE14      30.11R                  
MOUNT HOLLY    FAIR      68  55  63 NE6       30.14R                  
TRENTON        FAIR      66  53  63 NE8       30.14R                  

$$
NJZ001>014-171400-
NORTHERN NEW JERSEY
  
CITY           SKY/WX    TMP DP  RH WIND       PRES   REMARKS
SUSSEX         FAIR      60  54  80 CALM      30.18R                  
ANDOVER*         N/A     59  54  83 NE5       30.18R                  
MORRISTOWN     SUNNY     63  55  77 CALM      30.17R                  
NEWARK         FAIR      65  51  60 N12       30.15R                  
TETERBORO      FAIR      65  50  58 N8        30.15R                  
CALDWELL       FAIR      65  52  62 NE3       30.17R                  
SOMERVILLE     FAIR      65  53  65 VRB3      30.15R                  
ALLAIRE*       FAIR      67  52  58 NE13      30.15R                  
TOMS RIVER*    FAIR      69  55  60 NE13      30.14R                  

$$
PAZ043-044-047-054-055-060>062-066>071-171400-
EASTERN PENNSYLVANIA
  
CITY           SKY/WX    TMP DP  RH WIND       PRES   REMARKS
PHILADELPHIA   PTSUNNY   70  51  51 NE14      30.13R                  
NORTH PHILA    FAIR      69  53  56 NE12      30.16R                  
BLUE BELL*     FAIR      66  54  66 NE6       30.15R                  
DOYLESTOWN     FAIR      66  52  60 NE9       30.15R                  
QUAKERTOWN*    SUNNY     64  55  72 VRB6      30.17                   
PERKASIE*      FAIR      64  54  68 NE7       30.17R                  
POTTSTOWN      FAIR      64  56  75 NE8       30.17R                  
LANCASTER      PTSUNNY   67  55  65 NE9       30.14R                  
COATESVILLE    FAIR      66  57  72 NE6G17    30.16R                  
WEST CHESTER   FAIR      68  54  60 NE8       30.15R                  
READING        SUNNY     64  55  72 N8        30.15R                  
ALLENTOWN      FAIR      64  51  62 NE9       30.17R                  
QN CITY/ALNTWN FAIR      63  54  72 NE7       30.18R                  
MOUNT POCONO   FAIR      58  48  69 N7        30.20R                  
HAZLETON       FAIR      59  48  67 CALM      30.22R                  
LEHIGHTON      FAIR      59  52  77 CALM      30.20R                  
WILKES BARRE   FAIR      59  50  72 CALM      30.20R                  

$$
DEZALL-MDZ008-012-015-019-020-171400-
DELAWARE AND EASTERN MARYLAND
  
CITY           SKY/WX    TMP DP  RH WIND       PRES   REMARKS
WILMINGTON     FAIR      72  54  53 NE14      30.13R                  
DOVER          PTSUNNY   71  59  65 NE12      30.14R                  
CHESWOLD       CLOUDY    70  59  68 E15       30.12R                  
GEORGETOWN     FAIR      74  62  66 E14       30.09R                  
EASTON         PTSUNNY   73  64  73 NE12      30.12R                  
STEVENSVILLE   CLOUDY    72  66  83 E7        30.10R                  
PATUXENT       CLOUDY    73  67  81 E16G23    30.06                   
OCEAN CITY     FAIR      74  61  63 E12G20    30.08R                  
WALLOPS ISLAND CLOUDY    73  62  68 E17       30.06R                  
CAMBRIDGE      CLOUDY    72  63  73 E9G15     30.08R                  
SALISBURY      PTSUNNY   72  64  76 NE7       30.07R                  

$$
PAZ001-021-NYZ056-072-MDZ011-DCZ001-171400-
OTHER NEARBY LOCATIONS
  
CITY           SKY/WX    TMP DP  RH WIND       PRES   REMARKS
HARRISBURG     PTSUNNY   66  52  60 VRB5      30.14R                  
STATE COLLEGE  MOSUNNY   59  54  82 NE7       30.20R                  
WILLIAMSPORT   FAIR      60  53  77 SW3       30.19R                  
BINGHAMTON     FAIR      55  47  74 CALM      30.21R                  
NEW YORK CITY  FAIR      65  51  60 NE6       30.18R                  
BALTIMORE      PTSUNNY   73  60  63 E15       30.10R                  
WASHINGTON DC  CLOUDY    73  67  81 NE10      30.09R                  

$$